{"data":{"norad_id":60155,"epoch":"2026-05-24T21:30:48.819168Z","epoch_age_seconds":87458,"freshness":"FRESH","line1":"1 60155U 24120W   26144.89639837 -.00144923  00000+0 -51438-2 0  9993","line2":"2 60155  53.1609 325.9567 0012308 144.6853 215.4965 15.29040950108045","mean_motion":15.2904095,"eccentricity":0.0012308,"inclination_deg":53.1609,"raan_deg":325.9567,"arg_perigee_deg":144.6853,"mean_anomaly_deg":215.4965,"bstar":-0.0051438,"rev_number":10804,"period_min":94.176679833199,"perigee_km":470.23860183801,"apogee_km":487.11733756743,"semimajor_km":6856.8149697027,"source":"CELESTRAK","updated_at":"2026-05-25T13:38:19.192407Z"}}